Year,Month,Day,Hour,Minute,Value (Times are PST for windspeed in km/hr)
2012,01,24,00,00,0.10
2012,01,24,00,01,0.00
2012,01,24,00,02,0.00
2012,01,24,00,03,0.00
2012,01,24,00,04,0.00
2012,01,24,00,05,0.00
2012,01,24,00,06,0.00
2012,01,24,00,07,0.30
2012,01,24,00,08,0.50
2012,01,24,00,09,0.20
2012,01,24,00,10,0.10
2012,01,24,00,11,0.00
2012,01,24,00,12,0.00
2012,01,24,00,16,0.00
2012,01,24,00,17,0.00
2012,01,24,00,18,0.00
2012,01,24,00,19,0.00
2012,01,24,00,20,0.00
2012,01,24,00,21,0.00
2012,01,24,00,22,0.10
2012,01,24,00,23,0.00
2012,01,24,00,24,0.00
2012,01,24,00,25,0.00
2012,01,24,00,26,0.00
2012,01,24,00,27,0.20
2012,01,24,00,28,0.50
2012,01,24,00,29,0.50
2012,01,24,00,30,0.20
2012,01,24,00,31,0.00
2012,01,24,00,32,0.20
2012,01,24,00,33,0.00
2012,01,24,00,34,0.00
2012,01,24,00,35,0.10
2012,01,24,00,36,0.20
2012,01,24,00,37,0.80
2012,01,24,00,38,0.50
2012,01,24,00,39,1.40
2012,01,24,00,40,3.10
2012,01,24,00,41,2.00
2012,01,24,00,42,0.30
2012,01,24,00,43,0.10
2012,01,24,00,44,0.30
2012,01,24,00,45,1.10
2012,01,24,00,46,0.00
2012,01,24,00,47,0.00
2012,01,24,00,48,0.00
2012,01,24,00,49,0.00
2012,01,24,00,50,0.60
2012,01,24,00,51,0.00
2012,01,24,00,52,0.00
2012,01,24,00,53,0.00
2012,01,24,00,54,0.00
2012,01,24,00,55,0.00
2012,01,24,00,56,0.00
2012,01,24,00,57,0.10
2012,01,24,00,58,0.80
2012,01,24,00,59,1.90
2012,01,24,01,00,0.20
2012,01,24,01,01,0.00
2012,01,24,01,02,2.20
2012,01,24,01,03,0.70
2012,01,24,01,04,0.00
2012,01,24,01,05,0.00
2012,01,24,01,06,1.50
2012,01,24,01,07,0.40
2012,01,24,01,08,0.00
2012,01,24,01,09,0.10
2012,01,24,01,10,1.30
2012,01,24,01,11,1.50
2012,01,24,01,12,0.70
2012,01,24,01,13,0.00
2012,01,24,01,14,0.00
2012,01,24,01,15,0.00
2012,01,24,01,16,0.10
2012,01,24,01,17,0.30
2012,01,24,01,18,0.00
2012,01,24,01,19,0.00
2012,01,24,01,20,0.00
2012,01,24,01,21,0.00
2012,01,24,01,22,0.00
2012,01,24,01,23,0.00
2012,01,24,01,24,0.10
2012,01,24,01,25,0.00
2012,01,24,01,26,0.00
2012,01,24,01,27,0.00
2012,01,24,01,28,0.00
2012,01,24,01,29,0.00
2012,01,24,01,30,0.00
2012,01,24,01,31,0.00
2012,01,24,01,32,0.00
2012,01,24,01,33,0.00
2012,01,24,01,34,1.50
2012,01,24,01,35,0.70
2012,01,24,01,36,1.20
2012,01,24,01,37,1.10
2012,01,24,01,38,1.80
2012,01,24,01,39,0.30
2012,01,24,01,40,0.10
2012,01,24,01,41,0.00
2012,01,24,01,42,0.00
2012,01,24,01,43,0.00
2012,01,24,01,44,0.00
2012,01,24,01,45,0.40
2012,01,24,01,46,0.60
2012,01,24,01,47,0.80
2012,01,24,01,48,0.20
2012,01,24,01,49,1.00
2012,01,24,01,50,0.10
2012,01,24,01,51,0.00
2012,01,24,01,52,0.10
2012,01,24,01,53,0.20
2012,01,24,01,54,0.00
2012,01,24,01,55,0.00
2012,01,24,01,56,0.00
2012,01,24,01,57,0.00
2012,01,24,01,58,0.00
2012,01,24,01,59,0.00
2012,01,24,02,00,0.00
2012,01,24,02,01,0.00
2012,01,24,02,02,0.40
2012,01,24,02,03,2.20
2012,01,24,02,04,3.20
2012,01,24,02,05,3.90
2012,01,24,02,06,5.30
2012,01,24,02,07,4.00
2012,01,24,02,08,2.50
2012,01,24,02,09,0.60
2012,01,24,02,10,3.10
2012,01,24,02,11,2.40
2012,01,24,02,12,4.00
2012,01,24,02,13,5.40
2012,01,24,02,14,3.80
2012,01,24,02,15,1.20
2012,01,24,02,16,0.30
2012,01,24,02,17,3.30
2012,01,24,02,18,6.80
2012,01,24,02,19,9.10
2012,01,24,02,20,6.00
2012,01,24,02,21,5.60
2012,01,24,02,22,2.80
2012,01,24,02,23,0.00
2012,01,24,02,24,0.20
2012,01,24,02,25,4.10
2012,01,24,02,26,4.60
2012,01,24,02,27,4.20
2012,01,24,02,28,2.70
2012,01,24,02,29,2.00
2012,01,24,02,30,2.10
2012,01,24,02,31,1.60
2012,01,24,02,32,0.70
2012,01,24,02,33,0.20
2012,01,24,02,34,0.00
2012,01,24,02,35,0.00
2012,01,24,02,36,0.00
2012,01,24,02,37,0.50
2012,01,24,02,38,1.00
2012,01,24,02,39,4.00
2012,01,24,02,40,5.10
2012,01,24,02,41,5.20
2012,01,24,02,42,3.80
2012,01,24,02,43,4.10
2012,01,24,02,44,4.30
2012,01,24,02,45,3.80
2012,01,24,02,46,2.70
2012,01,24,02,47,2.30
2012,01,24,02,48,0.90
2012,01,24,02,49,0.10
2012,01,24,02,50,0.10
2012,01,24,02,51,2.50
2012,01,24,02,52,2.40
2012,01,24,02,53,2.40
2012,01,24,02,54,2.10
2012,01,24,02,55,0.80
2012,01,24,02,56,0.10
2012,01,24,02,57,2.90
2012,01,24,02,58,6.50
2012,01,24,02,59,9.20
2012,01,24,03,00,8.30
2012,01,24,03,01,5.50
2012,01,24,03,02,1.90
2012,01,24,03,03,2.30
2012,01,24,03,04,1.40
2012,01,24,03,05,3.10
2012,01,24,03,06,4.10
2012,01,24,03,07,4.70
2012,01,24,03,08,4.70
2012,01,24,03,09,5.80
2012,01,24,03,10,4.90
2012,01,24,03,11,8.60
2012,01,24,03,12,8.00
2012,01,24,03,13,7.30
2012,01,24,03,14,3.30
2012,01,24,03,15,7.10
2012,01,24,03,16,2.90
2012,01,24,03,17,1.40
2012,01,24,03,18,0.60
2012,01,24,03,19,0.60
2012,01,24,03,20,6.00
2012,01,24,03,21,3.30
2012,01,24,03,22,7.20
2012,01,24,03,23,7.20
2012,01,24,03,24,6.80
2012,01,24,03,25,3.70
2012,01,24,03,26,2.30
2012,01,24,03,27,3.60
2012,01,24,03,28,3.70
2012,01,24,03,29,1.10
2012,01,24,03,30,2.60
2012,01,24,03,31,1.90
2012,01,24,03,32,1.60
2012,01,24,03,33,2.60
2012,01,24,03,34,2.20
2012,01,24,03,35,2.50
2012,01,24,03,36,0.50
2012,01,24,03,37,1.90
2012,01,24,03,38,3.00
2012,01,24,03,39,0.90
2012,01,24,03,40,0.00
2012,01,24,03,41,0.00
2012,01,24,03,42,0.10
2012,01,24,03,43,0.40
2012,01,24,03,44,0.20
2012,01,24,03,45,0.60
2012,01,24,03,46,0.00
2012,01,24,03,47,0.10
2012,01,24,03,48,1.90
2012,01,24,03,49,0.20
2012,01,24,03,50,0.00
2012,01,24,03,51,0.10
2012,01,24,03,52,3.20
2012,01,24,03,53,1.20
2012,01,24,03,54,0.30
2012,01,24,03,55,0.00
2012,01,24,03,56,0.00
2012,01,24,03,57,0.20
2012,01,24,03,58,0.70
2012,01,24,03,59,0.30
2012,01,24,04,00,0.00
2012,01,24,04,01,0.00
2012,01,24,04,02,0.10
2012,01,24,04,03,0.00
2012,01,24,04,04,0.00
2012,01,24,04,05,0.00
2012,01,24,04,06,0.00
2012,01,24,04,07,0.20
2012,01,24,04,08,0.00
2012,01,24,04,09,0.10
2012,01,24,04,10,0.00
2012,01,24,04,11,0.10
2012,01,24,04,12,0.00
2012,01,24,04,13,0.00
2012,01,24,04,14,0.00
2012,01,24,04,15,0.10
2012,01,24,04,16,0.60
2012,01,24,04,17,0.00
2012,01,24,04,18,0.00
2012,01,24,04,19,0.00
2012,01,24,04,20,0.00
2012,01,24,04,21,0.00
2012,01,24,04,22,0.00
2012,01,24,04,23,0.20
2012,01,24,04,24,0.00
2012,01,24,04,25,0.10
2012,01,24,04,26,0.60
2012,01,24,04,27,1.10
2012,01,24,04,28,1.50
2012,01,24,04,29,0.70
2012,01,24,04,30,0.10
2012,01,24,04,31,1.70
2012,01,24,04,32,0.20
2012,01,24,04,33,0.00
2012,01,24,04,34,0.20
2012,01,24,04,35,0.80
2012,01,24,04,36,1.30
2012,01,24,04,37,1.40
2012,01,24,04,38,1.10
2012,01,24,04,39,2.40
2012,01,24,04,40,2.90
2012,01,24,04,41,0.20
2012,01,24,04,42,0.00
2012,01,24,04,43,1.00
2012,01,24,04,44,0.00
2012,01,24,04,45,0.10
2012,01,24,04,46,0.00
2012,01,24,04,47,0.00
2012,01,24,04,48,0.00
2012,01,24,04,49,0.00
2012,01,24,04,50,0.30
2012,01,24,04,51,0.10
2012,01,24,04,52,1.90
2012,01,24,04,53,2.20
2012,01,24,04,54,1.60
2012,01,24,04,55,0.40
2012,01,24,04,56,0.50
2012,01,24,04,57,0.30
2012,01,24,04,58,1.00
2012,01,24,04,59,2.40
2012,01,24,05,00,1.00
2012,01,24,05,01,2.60
2012,01,24,05,02,0.20
2012,01,24,05,03,0.40
2012,01,24,05,04,0.40
2012,01,24,05,05,3.40
2012,01,24,05,06,1.70
2012,01,24,05,07,1.30
2012,01,24,05,08,2.00
2012,01,24,05,09,2.10
2012,01,24,05,10,1.10
2012,01,24,05,11,1.20
2012,01,24,05,12,0.90
2012,01,24,05,13,0.90
2012,01,24,05,14,0.20
2012,01,24,05,15,0.10
2012,01,24,05,16,0.60
2012,01,24,05,17,1.60
2012,01,24,05,18,0.30
2012,01,24,05,19,2.10
2012,01,24,05,20,0.30
2012,01,24,05,21,0.60
2012,01,24,05,22,0.80
2012,01,24,05,23,0.80
2012,01,24,05,24,0.30
2012,01,24,05,25,0.60
2012,01,24,05,26,0.20
2012,01,24,05,27,0.00
2012,01,24,05,28,0.00
2012,01,24,05,29,0.00
2012,01,24,05,30,0.00
2012,01,24,05,31,0.00
2012,01,24,05,32,0.10
2012,01,24,05,33,0.20
2012,01,24,05,34,0.00
2012,01,24,05,35,0.00
2012,01,24,05,36,0.20
2012,01,24,05,37,0.10
2012,01,24,05,38,0.00
2012,01,24,05,39,3.70
2012,01,24,05,40,4.20
2012,01,24,05,41,1.20
2012,01,24,05,42,0.00
2012,01,24,05,43,0.00
2012,01,24,05,44,2.70
2012,01,24,05,45,1.40
2012,01,24,05,46,0.30
2012,01,24,05,47,1.20
2012,01,24,05,48,0.10
2012,01,24,05,49,2.10
2012,01,24,05,50,3.80
2012,01,24,05,51,4.70
2012,01,24,05,52,0.60
2012,01,24,05,53,0.00
2012,01,24,05,54,0.00
2012,01,24,05,55,0.00
2012,01,24,05,56,0.00
2012,01,24,05,57,1.90
2012,01,24,05,58,1.20
2012,01,24,05,59,2.70
2012,01,24,06,00,3.00
2012,01,24,06,01,3.90
2012,01,24,06,02,2.10
2012,01,24,06,03,2.80
2012,01,24,06,04,0.30
2012,01,24,06,05,0.00
2012,01,24,06,06,0.10
2012,01,24,06,07,1.40
2012,01,24,06,08,0.20
2012,01,24,06,09,1.20
2012,01,24,06,10,1.90
2012,01,24,06,11,0.30
2012,01,24,06,12,0.10
2012,01,24,06,13,0.30
2012,01,24,06,14,0.00
2012,01,24,06,15,0.50
2012,01,24,06,16,1.00
2012,01,24,06,17,0.00
2012,01,24,06,18,0.20
2012,01,24,06,19,2.30
2012,01,24,06,20,0.00
2012,01,24,06,21,0.10
2012,01,24,06,22,0.10
2012,01,24,06,23,1.30
2012,01,24,06,24,0.50
2012,01,24,06,25,0.10
2012,01,24,06,26,0.20
2012,01,24,06,27,1.50
2012,01,24,06,28,3.70
2012,01,24,06,29,0.10
2012,01,24,06,30,3.50
2012,01,24,06,31,0.50
2012,01,24,06,32,1.80
2012,01,24,06,33,0.00
2012,01,24,06,34,1.60
2012,01,24,06,35,0.00
2012,01,24,06,36,0.20
2012,01,24,06,37,2.60
2012,01,24,06,38,2.70
2012,01,24,06,39,0.00
2012,01,24,06,40,0.20
2012,01,24,06,41,1.20
2012,01,24,06,42,0.40
2012,01,24,06,43,0.00
2012,01,24,06,44,1.00
2012,01,24,06,45,0.20
2012,01,24,06,46,0.00
2012,01,24,06,47,0.00
2012,01,24,06,48,0.00
2012,01,24,06,49,0.00
2012,01,24,06,50,0.10
2012,01,24,06,51,0.00
2012,01,24,06,52,0.00
2012,01,24,06,53,0.00
2012,01,24,06,54,0.40
2012,01,24,06,55,1.80
2012,01,24,06,56,0.20
2012,01,24,06,57,0.20
2012,01,24,06,58,0.30
2012,01,24,06,59,2.30
2012,01,24,07,00,3.10
2012,01,24,07,01,1.30
2012,01,24,07,02,2.70
2012,01,24,07,03,0.30
2012,01,24,07,04,0.00
2012,01,24,07,05,1.50
2012,01,24,07,06,0.30
2012,01,24,07,07,0.00
2012,01,24,07,08,0.00
2012,01,24,07,09,0.00
2012,01,24,07,10,0.00
2012,01,24,07,11,0.00
2012,01,24,07,12,0.00
2012,01,24,07,13,0.00
2012,01,24,07,14,0.00
2012,01,24,07,15,1.20
2012,01,24,07,16,1.00
2012,01,24,07,17,0.20
2012,01,24,07,18,0.00
2012,01,24,07,19,0.00
2012,01,24,07,20,0.70
2012,01,24,07,21,0.40
2012,01,24,07,22,0.30
2012,01,24,07,23,0.00
2012,01,24,07,24,2.60
2012,01,24,07,25,0.50
2012,01,24,07,26,0.00
2012,01,24,07,27,0.00
2012,01,24,07,28,0.00
2012,01,24,07,29,0.10
2012,01,24,07,30,0.00
2012,01,24,07,31,0.00
2012,01,24,07,32,0.00
2012,01,24,07,33,0.00
2012,01,24,07,34,0.00
2012,01,24,07,35,0.00
2012,01,24,07,36,0.00
2012,01,24,07,37,0.00
2012,01,24,07,38,0.20
2012,01,24,07,39,0.00
2012,01,24,07,40,0.20
2012,01,24,07,41,0.40
2012,01,24,07,42,0.00
2012,01,24,07,43,3.00
2012,01,24,07,44,2.80
2012,01,24,07,45,1.90
2012,01,24,07,46,3.10
2012,01,24,07,47,0.60
2012,01,24,07,48,1.50
2012,01,24,07,49,0.00
2012,01,24,07,50,0.00
2012,01,24,07,51,0.00
2012,01,24,07,52,1.30
2012,01,24,07,53,1.90
2012,01,24,07,54,0.20
2012,01,24,07,55,0.20
2012,01,24,07,56,0.00
2012,01,24,07,57,0.00
2012,01,24,07,58,0.00
2012,01,24,07,59,0.60
2012,01,24,08,00,0.10
2012,01,24,08,01,0.40
2012,01,24,08,02,0.20
2012,01,24,08,03,0.00
2012,01,24,08,04,0.10
2012,01,24,08,05,0.00
2012,01,24,08,06,0.30
2012,01,24,08,07,4.80
2012,01,24,08,08,4.80
2012,01,24,08,09,3.60
2012,01,24,08,10,1.10
2012,01,24,08,11,0.10
2012,01,24,08,12,1.20
2012,01,24,08,13,5.70
2012,01,24,08,14,1.90
2012,01,24,08,15,3.90
2012,01,24,08,16,1.40
2012,01,24,08,17,2.40
2012,01,24,08,18,2.00
2012,01,24,08,19,0.40
2012,01,24,08,20,1.80
2012,01,24,08,21,1.50
2012,01,24,08,22,6.20
2012,01,24,08,23,2.90
2012,01,24,08,24,2.70
2012,01,24,08,25,0.60
2012,01,24,08,26,1.20
2012,01,24,08,27,1.40
2012,01,24,08,28,0.50
2012,01,24,08,29,0.00
2012,01,24,08,30,0.20
2012,01,24,08,31,0.10
2012,01,24,08,32,0.00
2012,01,24,08,33,0.20
2012,01,24,08,34,2.90
2012,01,24,08,35,1.50
2012,01,24,08,36,0.50
2012,01,24,08,37,0.10
2012,01,24,08,38,0.00
2012,01,24,08,39,0.50
2012,01,24,08,40,3.10
2012,01,24,08,41,3.10
2012,01,24,08,42,4.90
2012,01,24,08,43,3.30
2012,01,24,08,44,2.70
2012,01,24,08,45,4.20
2012,01,24,08,46,1.10
2012,01,24,08,47,1.40
2012,01,24,08,48,3.10
2012,01,24,08,49,0.30
2012,01,24,08,50,0.00
2012,01,24,08,51,0.20
2012,01,24,08,52,3.00
2012,01,24,08,53,1.70
2012,01,24,08,54,0.70
2012,01,24,08,55,2.70
2012,01,24,08,56,1.00
2012,01,24,08,57,0.50
2012,01,24,08,58,2.80
2012,01,24,08,59,0.30
2012,01,24,09,00,1.30
2012,01,24,09,01,0.00
2012,01,24,09,02,0.20
2012,01,24,09,03,0.00
2012,01,24,09,04,0.20
2012,01,24,09,05,0.80
2012,01,24,09,06,0.30
2012,01,24,09,07,0.30
2012,01,24,09,08,3.90
2012,01,24,09,09,3.00
2012,01,24,09,10,1.40
2012,01,24,09,11,0.70
2012,01,24,09,12,0.10
2012,01,24,09,13,2.20
2012,01,24,09,14,4.80
2012,01,24,09,15,2.30
2012,01,24,09,16,0.10
2012,01,24,09,17,0.20
2012,01,24,09,18,2.60
2012,01,24,09,19,2.50
2012,01,24,09,20,0.50
2012,01,24,09,21,0.60
2012,01,24,09,22,2.80
2012,01,24,09,23,1.10
2012,01,24,09,24,0.60
2012,01,24,09,25,0.20
2012,01,24,09,26,1.50
2012,01,24,09,27,1.80
2012,01,24,09,28,1.70
2012,01,24,09,29,1.80
2012,01,24,09,30,1.80
2012,01,24,09,31,1.20
2012,01,24,09,32,1.90
2012,01,24,09,33,1.80
2012,01,24,09,34,3.50
2012,01,24,09,35,2.20
2012,01,24,09,36,3.70
2012,01,24,09,37,0.80
2012,01,24,09,38,2.50
2012,01,24,09,39,4.40
2012,01,24,09,40,3.60
2012,01,24,09,41,2.90
2012,01,24,09,42,1.30
2012,01,24,09,43,4.30
2012,01,24,09,44,3.00
2012,01,24,09,45,1.00
2012,01,24,09,46,2.10
2012,01,24,09,47,2.50
2012,01,24,09,48,1.70
2012,01,24,09,49,2.40
2012,01,24,09,50,3.40
2012,01,24,09,51,5.60
2012,01,24,09,52,3.10
2012,01,24,09,53,2.70
2012,01,24,09,54,0.50
2012,01,24,09,55,1.80
2012,01,24,09,56,1.40
2012,01,24,09,57,6.50
2012,01,24,09,58,10.10
2012,01,24,09,59,6.60
2012,01,24,10,00,3.90
2012,01,24,10,01,3.50
2012,01,24,10,02,2.10
2012,01,24,10,03,6.50
2012,01,24,10,04,4.10
2012,01,24,10,05,2.70
2012,01,24,10,06,4.70
2012,01,24,10,07,4.10
2012,01,24,10,08,1.60
2012,01,24,10,09,3.50
2012,01,24,10,10,7.30
2012,01,24,10,11,2.00
2012,01,24,10,12,6.10
2012,01,24,10,13,5.60
2012,01,24,10,14,2.70
2012,01,24,10,15,0.80
2012,01,24,10,16,2.80
2012,01,24,10,17,1.40
2012,01,24,10,18,1.60
2012,01,24,10,19,4.60
2012,01,24,10,20,1.60
2012,01,24,10,21,3.50
2012,01,24,10,22,4.30
2012,01,24,10,23,1.10
2012,01,24,10,24,4.20
2012,01,24,10,25,4.10
2012,01,24,10,26,0.90
2012,01,24,10,27,0.90
2012,01,24,10,28,0.60
2012,01,24,10,29,1.00
2012,01,24,10,30,0.40
2012,01,24,10,31,1.00
2012,01,24,10,32,1.90
2012,01,24,10,33,1.50
2012,01,24,10,34,2.00
2012,01,24,10,35,0.10
2012,01,24,10,36,2.30
2012,01,24,10,37,0.80
2012,01,24,10,38,0.50
2012,01,24,10,39,0.70
2012,01,24,10,40,0.40
2012,01,24,10,41,2.30
2012,01,24,10,42,0.20
2012,01,24,10,43,0.00
2012,01,24,10,44,0.00
2012,01,24,10,45,0.70
2012,01,24,10,46,2.20
2012,01,24,10,47,2.50
2012,01,24,10,48,5.10
2012,01,24,10,49,3.90
2012,01,24,10,50,0.20
2012,01,24,10,51,0.10
2012,01,24,10,52,0.70
2012,01,24,10,53,2.50
2012,01,24,10,54,2.70
2012,01,24,10,55,2.90
2012,01,24,10,56,1.50
2012,01,24,10,57,0.50
2012,01,24,10,58,1.00
2012,01,24,10,59,3.40
2012,01,24,11,00,4.70
2012,01,24,11,01,3.40
2012,01,24,11,02,1.40
2012,01,24,11,03,3.60
2012,01,24,11,04,5.20
2012,01,24,11,05,2.10
2012,01,24,11,06,2.00
2012,01,24,11,07,1.80
2012,01,24,11,08,3.00
2012,01,24,11,09,7.30
2012,01,24,11,10,6.20
2012,01,24,11,11,4.80
2012,01,24,11,12,1.90
2012,01,24,11,13,3.50
2012,01,24,11,14,0.50
2012,01,24,11,15,0.00
2012,01,24,11,16,2.70
2012,01,24,11,17,4.60
2012,01,24,11,18,1.80
2012,01,24,11,19,0.10
2012,01,24,11,20,0.00
2012,01,24,11,21,4.10
2012,01,24,11,22,4.30
2012,01,24,11,23,1.90
2012,01,24,11,24,0.60
2012,01,24,11,25,3.40
2012,01,24,11,26,2.50
2012,01,24,11,27,4.20
2012,01,24,11,28,3.50
2012,01,24,11,29,3.30
2012,01,24,11,30,3.40
2012,01,24,11,31,5.20
2012,01,24,11,32,4.50
2012,01,24,11,33,2.20
2012,01,24,11,34,2.70
2012,01,24,11,35,2.60
2012,01,24,11,36,4.60
2012,01,24,11,37,3.10
2012,01,24,11,38,5.60
2012,01,24,11,39,3.60
2012,01,24,11,40,0.80
2012,01,24,11,41,3.90
2012,01,24,11,42,4.60
2012,01,24,11,43,5.70
2012,01,24,11,44,4.40
2012,01,24,11,45,5.60
2012,01,24,11,46,4.10
2012,01,24,11,47,1.20
2012,01,24,11,48,1.10
2012,01,24,11,49,2.10
2012,01,24,11,50,2.50
2012,01,24,11,51,1.40
2012,01,24,11,52,1.80
2012,01,24,11,53,1.90
2012,01,24,11,54,1.60
2012,01,24,11,55,1.00
2012,01,24,11,56,1.90
2012,01,24,11,57,1.20
2012,01,24,11,58,0.90
2012,01,24,11,59,0.00
2012,01,24,12,00,0.60
2012,01,24,12,01,0.20
2012,01,24,12,02,2.60
2012,01,24,12,03,6.00
2012,01,24,12,04,3.40
2012,01,24,12,05,1.50
2012,01,24,12,06,2.10
2012,01,24,12,07,3.70
2012,01,24,12,08,3.60
2012,01,24,12,09,2.60
2012,01,24,12,10,1.60
2012,01,24,12,11,1.50
2012,01,24,12,12,1.80
2012,01,24,12,13,1.80
2012,01,24,12,14,1.70
2012,01,24,12,15,6.00
2012,01,24,12,16,4.10
2012,01,24,12,17,1.40
2012,01,24,12,18,3.30
2012,01,24,12,19,2.50
2012,01,24,12,20,2.30
2012,01,24,12,21,3.20
2012,01,24,12,22,3.20
2012,01,24,12,23,5.10
2012,01,24,12,24,4.70
2012,01,24,12,25,5.20
2012,01,24,12,26,4.00
2012,01,24,12,27,4.10
2012,01,24,12,28,5.60
2012,01,24,12,29,4.60
2012,01,24,12,30,5.40
2012,01,24,12,31,7.10
2012,01,24,12,32,2.20
2012,01,24,12,33,3.50
2012,01,24,12,34,2.00
2012,01,24,12,35,2.10
2012,01,24,12,36,0.10
2012,01,24,12,37,0.00
2012,01,24,12,38,1.00
2012,01,24,12,39,2.20
2012,01,24,12,40,0.20
2012,01,24,12,41,1.60
2012,01,24,12,42,0.70
2012,01,24,12,43,1.90
2012,01,24,12,44,1.50
2012,01,24,12,45,3.00
2012,01,24,12,46,2.10
2012,01,24,12,47,1.10
2012,01,24,12,48,0.00
2012,01,24,12,49,0.00
2012,01,24,12,50,0.10
2012,01,24,12,51,0.20
2012,01,24,12,52,1.10
2012,01,24,12,53,3.00
2012,01,24,12,54,3.80
2012,01,24,12,55,1.60
2012,01,24,12,56,1.30
2012,01,24,12,57,0.00
2012,01,24,12,58,0.50
2012,01,24,12,59,0.00
2012,01,24,13,00,0.00
2012,01,24,13,01,0.00
2012,01,24,13,02,0.40
2012,01,24,13,03,0.20
2012,01,24,13,04,0.00
2012,01,24,13,05,0.20
2012,01,24,13,06,0.20
2012,01,24,13,07,0.50
2012,01,24,13,08,3.00
2012,01,24,13,09,1.60
2012,01,24,13,10,1.00
2012,01,24,13,11,1.10
2012,01,24,13,12,2.80
2012,01,24,13,13,3.40
2012,01,24,13,14,0.70
2012,01,24,13,15,0.80
2012,01,24,13,16,2.70
2012,01,24,13,17,3.50
2012,01,24,13,18,0.60
2012,01,24,13,19,0.90
2012,01,24,13,20,2.90
2012,01,24,13,21,3.50
2012,01,24,13,22,0.00
2012,01,24,13,23,0.40
2012,01,24,13,24,3.00
2012,01,24,13,25,1.70
2012,01,24,13,26,0.30
2012,01,24,13,27,0.50
2012,01,24,13,28,1.00
2012,01,24,13,29,2.20
2012,01,24,13,30,0.30
2012,01,24,13,31,1.10
2012,01,24,13,32,0.00
2012,01,24,13,33,0.00
2012,01,24,13,34,0.20
2012,01,24,13,35,1.20
2012,01,24,13,36,2.30
2012,01,24,13,37,1.00
2012,01,24,13,38,0.50
2012,01,24,13,39,0.00
2012,01,24,13,40,0.10
2012,01,24,13,41,0.40
2012,01,24,13,42,0.00
2012,01,24,13,43,0.10
2012,01,24,13,44,0.00
2012,01,24,13,45,0.00
2012,01,24,13,46,1.20
2012,01,24,13,47,0.60
2012,01,24,13,48,0.20
2012,01,24,13,49,0.00
2012,01,24,13,50,0.10
2012,01,24,13,51,0.20
2012,01,24,13,52,0.00
2012,01,24,13,53,0.00
2012,01,24,13,54,0.00
2012,01,24,13,55,0.00
2012,01,24,13,56,0.90
2012,01,24,13,57,1.90
2012,01,24,13,58,0.00
2012,01,24,13,59,0.00
2012,01,24,14,00,1.40
2012,01,24,14,01,4.70
2012,01,24,14,02,2.20
2012,01,24,14,03,1.30
2012,01,24,14,04,0.10
2012,01,24,14,05,0.90
2012,01,24,14,06,2.50
2012,01,24,14,07,0.90
2012,01,24,14,08,1.50
2012,01,24,14,09,0.30
2012,01,24,14,10,2.90
2012,01,24,14,11,2.40
2012,01,24,14,12,1.10
2012,01,24,14,13,0.30
2012,01,24,14,14,0.30
2012,01,24,14,15,0.40
2012,01,24,14,16,2.50
2012,01,24,14,17,2.60
2012,01,24,14,18,3.10
2012,01,24,14,19,4.50
2012,01,24,14,20,2.30
2012,01,24,14,21,0.20
2012,01,24,14,22,7.00
2012,01,24,14,23,5.10
2012,01,24,14,24,5.20
2012,01,24,14,25,4.40
2012,01,24,14,26,2.30
2012,01,24,14,27,1.90
2012,01,24,14,28,1.70
2012,01,24,14,29,1.30
2012,01,24,14,30,0.00
2012,01,24,14,31,0.00
2012,01,24,14,32,0.10
2012,01,24,14,33,1.50
2012,01,24,14,34,4.20
2012,01,24,14,35,5.10
2012,01,24,14,36,1.60
2012,01,24,14,37,0.80
2012,01,24,14,38,0.40
2012,01,24,14,39,0.00
2012,01,24,14,40,0.30
2012,01,24,14,41,1.60
2012,01,24,14,42,2.50
2012,01,24,14,43,0.90
2012,01,24,14,44,0.60
2012,01,24,14,45,0.70
2012,01,24,14,46,0.60
2012,01,24,14,47,2.30
2012,01,24,14,48,3.50
2012,01,24,14,49,1.90
2012,01,24,14,50,2.20
2012,01,24,14,51,0.40
2012,01,24,14,52,1.40
2012,01,24,14,53,0.30
2012,01,24,14,54,0.00
2012,01,24,14,55,0.00
2012,01,24,14,56,0.00
2012,01,24,14,57,0.50
2012,01,24,14,58,2.40
2012,01,24,14,59,1.90
2012,01,24,15,00,0.50
2012,01,24,15,01,0.20
2012,01,24,15,02,0.00
2012,01,24,15,03,0.50
2012,01,24,15,04,0.00
2012,01,24,15,05,0.10
2012,01,24,15,06,0.40
2012,01,24,15,07,0.60
2012,01,24,15,08,0.10
2012,01,24,15,09,1.80
2012,01,24,15,10,2.80
2012,01,24,15,11,2.20
2012,01,24,15,12,0.10
2012,01,24,15,13,0.00
2012,01,24,15,14,0.00
2012,01,24,15,15,0.00
2012,01,24,15,16,0.00
2012,01,24,15,17,1.30
2012,01,24,15,18,1.90
2012,01,24,15,19,4.00
2012,01,24,15,20,0.40
2012,01,24,15,21,0.90
2012,01,24,15,22,0.00
2012,01,24,15,23,0.40
2012,01,24,15,24,1.40
2012,01,24,15,25,0.70
2012,01,24,15,26,0.50
2012,01,24,15,27,1.30
2012,01,24,15,28,0.30
2012,01,24,15,29,0.90
2012,01,24,15,30,2.30
2012,01,24,15,31,3.40
2012,01,24,15,32,2.10
2012,01,24,15,33,0.90
2012,01,24,15,34,0.20
2012,01,24,15,35,0.80
2012,01,24,15,36,0.60
2012,01,24,15,37,0.10
2012,01,24,15,38,0.00
2012,01,24,15,39,0.00
2012,01,24,15,40,0.00
2012,01,24,15,41,0.10
2012,01,24,15,42,0.00
2012,01,24,15,43,0.00
2012,01,24,15,44,0.00
2012,01,24,15,45,1.00
2012,01,24,15,46,1.00
2012,01,24,15,47,0.80
2012,01,24,15,48,2.20
2012,01,24,15,49,0.00
2012,01,24,15,50,0.00
2012,01,24,15,51,0.10
2012,01,24,15,52,0.00
2012,01,24,15,53,0.10
2012,01,24,15,54,0.00
2012,01,24,15,55,0.60
2012,01,24,15,56,0.40
2012,01,24,15,57,0.10
2012,01,24,15,58,0.10
2012,01,24,15,59,0.00
2012,01,24,16,00,0.10
2012,01,24,16,01,0.00
2012,01,24,16,02,0.00
2012,01,24,16,03,0.00
2012,01,24,16,04,0.20
2012,01,24,16,05,1.90
2012,01,24,16,06,0.50
2012,01,24,16,07,0.00
2012,01,24,16,08,1.10
2012,01,24,16,09,0.10
2012,01,24,16,10,0.00
2012,01,24,16,11,0.00
2012,01,24,16,12,0.00
2012,01,24,16,13,0.60
2012,01,24,16,14,0.70
2012,01,24,16,15,0.00
2012,01,24,16,16,0.10
2012,01,24,16,17,0.00
2012,01,24,16,18,0.00
2012,01,24,16,19,0.20
2012,01,24,16,20,1.10
2012,01,24,16,21,0.00
2012,01,24,16,22,0.00
2012,01,24,16,23,0.50
2012,01,24,16,24,0.20
2012,01,24,16,25,1.10
2012,01,24,16,26,1.40
2012,01,24,16,27,0.20
2012,01,24,16,28,0.00
2012,01,24,16,29,0.10
2012,01,24,16,30,0.00
2012,01,24,16,31,0.00
2012,01,24,16,32,0.00
2012,01,24,16,33,0.00
2012,01,24,16,34,0.00
2012,01,24,16,35,0.10
2012,01,24,16,36,0.70
2012,01,24,16,37,0.20
2012,01,24,16,38,0.00
2012,01,24,16,39,0.00
2012,01,24,16,40,0.10
2012,01,24,16,41,0.10
2012,01,24,16,42,0.10
2012,01,24,16,43,1.40
2012,01,24,16,44,3.70
2012,01,24,16,45,1.40
2012,01,24,16,46,1.10
2012,01,24,16,47,0.50
2012,01,24,16,48,0.00
2012,01,24,16,49,0.20
2012,01,24,16,50,2.30
2012,01,24,16,51,3.00
2012,01,24,16,52,0.10
2012,01,24,16,53,0.20
2012,01,24,16,54,0.60
2012,01,24,16,55,1.60
2012,01,24,16,56,0.30
2012,01,24,16,57,0.20
2012,01,24,16,58,0.20
2012,01,24,16,59,0.00
2012,01,24,17,00,0.20
2012,01,24,17,01,1.10
2012,01,24,17,02,2.80
2012,01,24,17,03,0.40
2012,01,24,17,04,0.00
2012,01,24,17,05,0.90
2012,01,24,17,06,1.90
2012,01,24,17,07,0.40
2012,01,24,17,08,0.00
2012,01,24,17,09,1.10
2012,01,24,17,10,1.00
2012,01,24,17,11,0.00
2012,01,24,17,12,1.30
2012,01,24,17,13,0.20
2012,01,24,17,14,0.00
2012,01,24,17,15,0.10
2012,01,24,17,16,1.50
2012,01,24,17,17,1.40
2012,01,24,17,18,1.10
2012,01,24,17,19,0.00
2012,01,24,17,20,0.70
2012,01,24,17,21,0.00
2012,01,24,17,22,0.00
2012,01,24,17,23,0.00
2012,01,24,17,24,0.40
2012,01,24,17,25,3.40
2012,01,24,17,26,2.10
2012,01,24,17,27,0.10
2012,01,24,17,28,0.90
2012,01,24,17,29,0.10
2012,01,24,17,30,0.00
2012,01,24,17,31,0.10
2012,01,24,17,32,0.50
2012,01,24,17,33,1.00
2012,01,24,17,34,0.10
2012,01,24,17,35,0.10
2012,01,24,17,36,0.00
2012,01,24,17,37,0.00
2012,01,24,17,38,1.00
2012,01,24,17,39,1.90
2012,01,24,17,40,1.30
2012,01,24,17,41,0.20
2012,01,24,17,42,0.70
2012,01,24,17,43,1.90
2012,01,24,17,44,1.70
2012,01,24,17,45,3.60
2012,01,24,17,46,1.00
2012,01,24,17,47,1.00
2012,01,24,17,48,3.50
2012,01,24,17,49,8.20
2012,01,24,17,50,8.70
2012,01,24,17,51,6.20
2012,01,24,17,52,7.80
2012,01,24,17,53,9.90
2012,01,24,17,54,4.60
2012,01,24,17,55,3.80
2012,01,24,17,56,5.80
2012,01,24,17,57,7.90
2012,01,24,17,58,11.80
2012,01,24,17,59,5.80
2012,01,24,18,00,8.40
2012,01,24,18,01,7.50
2012,01,24,18,02,9.40
2012,01,24,18,03,4.30
2012,01,24,18,04,6.00
2012,01,24,18,05,8.90
2012,01,24,18,06,10.20
2012,01,24,18,07,11.70
2012,01,24,18,08,8.80
2012,01,24,18,09,14.40